Reidsville, NC

9:15 AM EDT on April 27, 2017 (GMT -0400)
Reidsville

Weather History for KSIF - February, 2012

Change the Weather History Date:

Sunday, February 5, 2012

  Actual Average (KGSO) Record (KGSO)
Temperature  
Mean Temperature 42 °F -  
Max Temperature 45 °F 47 °F 74 °F (2008)
Min Temperature 38 °F 27 °F 1 °F (1996)
Degree Days  
Heating Degree Days 24    
Moisture  
Dew Point 39 °F    
Average Humidity 95    
Maximum Humidity 100    
Minimum Humidity 87    
Precipitation  
Precipitation 0.04 in - - ()
Sea Level Pressure  
Sea Level Pressure 30.09 in    
Wind  
Wind Speed 4 mph (NE)    
Max Wind Speed 7 mph    
Max Gust Speed -    
Visibility 7 miles    
Events Rain    
Averages and records for this station are not official NWS values.
T = Trace of Precipitation, MM = Missing Value Source: NWS Daily Summary

Daily Weather History Graph

Daily Weather History Graph

Search for Another Location

Airport or City:

Trip Planner

Search our weather history database for the weather conditions in past years. The results will help you decide how hot, cold, wet, or windy it might be!

Date:

Astronomy

Feb. 05, 2012 Rise Set
Actual Time 7:17 AM EST 5:49 PM EST
Civil Twilight 6:50 AM EST 6:16 PM EST
Nautical Twilight 6:20 AM EST 6:46 PM EST
Astronomical Twilight 5:50 AM EST 7:17 PM EST
Moon 3:48 PM EST (2/5) 5:25 AM EST (2/5)
Length of Visible Light 11h 25m
Length of Day
10h 31m
Waxing Gibbous, 94% of the Moon is Illuminated
Feb 5
Waxing Gibbous
Feb 7
Full
Feb 14
Last Quarter
Feb 21
New
Feb 29
First Quarter

Hourly Weather History & Observations

Time (EST) Temp. Windchill Dew Point Humidity Pressure Visibility Wind Dir Wind Speed Gust Speed Precip Events Conditions
12:15 AM 45.7 °F - 45.7 °F 100% 30.06 in 3.0 mi Calm Calm - N/A   Drizzle
12:35 AM 44.6 °F 42.2 °F 44.6 °F 100% 30.05 in 4.0 mi ENE 4.6 mph - N/A Rain Light Rain
12:55 AM 43.0 °F 41.3 °F 43.0 °F 100% 30.05 in 3.0 mi ENE 3.5 mph - 0.01 in Rain Rain
1:15 AM 42.4 °F 39.6 °F 42.4 °F 100% 30.06 in 3.0 mi NE 4.6 mph - 0.01 in Rain Rain
1:35 AM 41.7 °F 38.0 °F 41.7 °F 100% 30.05 in 5.0 mi NNE 5.8 mph - 0.02 in Rain Rain
1:55 AM 40.6 °F 37.5 °F 40.6 °F 100% 30.05 in 4.0 mi NE 4.6 mph - 0.02 in Rain Light Rain
2:15 AM 40.1 °F 38.0 °F 40.1 °F 100% 30.04 in 3.0 mi NE 3.5 mph - 0.01 in Rain Light Rain
2:35 AM 39.7 °F 36.5 °F 39.7 °F 100% 30.04 in 5.0 mi NNE 4.6 mph - 0.01 in Rain Rain
2:55 AM 39.6 °F 35.4 °F 39.6 °F 100% 30.03 in 4.0 mi NNE 5.8 mph - 0.01 in Rain Light Rain
3:15 AM 39.2 °F 35.9 °F 39.2 °F 100% 30.04 in 3.0 mi NE 4.6 mph - N/A Rain Rain
3:35 AM 39.2 °F 37.0 °F 39.2 °F 100% 30.04 in 3.0 mi NNE 3.5 mph - N/A   Light Drizzle
3:55 AM 39.0 °F 35.7 °F 39.0 °F 100% 30.03 in 3.0 mi NNE 4.6 mph - N/A   Overcast
4:15 AM 38.8 °F 34.6 °F 38.7 °F 99% 30.03 in 5.0 mi NNE 5.8 mph - N/A   Overcast
4:35 AM 38.7 °F 36.3 °F 38.5 °F 99% 30.03 in 5.0 mi NE 3.5 mph - N/A   Light Drizzle
4:55 AM 38.7 °F 36.3 °F 38.5 °F 99% 30.03 in 4.0 mi NNE 3.5 mph - N/A Rain Rain
5:15 AM 38.8 °F 36.5 °F 38.7 °F 99% 30.03 in 4.0 mi NE 3.5 mph - N/A   Overcast
5:35 AM 38.8 °F 35.4 °F 38.7 °F 99% 30.02 in 4.0 mi NNE 4.6 mph - N/A   Overcast
5:55 AM 38.7 °F 36.3 °F 38.5 °F 99% 30.02 in 4.0 mi NE 3.5 mph - N/A   Overcast
6:15 AM 38.7 °F 35.2 °F 38.5 °F 99% 30.02 in 5.0 mi NE 4.6 mph - N/A   Overcast
6:35 AM 38.7 °F - 38.3 °F 99% 30.03 in 4.0 mi Calm Calm - N/A   Overcast
6:55 AM 38.8 °F - 38.5 °F 99% 30.04 in 4.0 mi Calm Calm - N/A   Drizzle
7:15 AM 38.8 °F - 38.5 °F 99% 30.04 in 5.0 mi Calm Calm - N/A Rain Light Rain
7:35 AM 38.8 °F 36.5 °F 38.5 °F 99% 30.05 in 5.0 mi NNE 3.5 mph - N/A   Overcast
7:55 AM 38.8 °F 35.4 °F 38.5 °F 99% 30.05 in 5.0 mi NE 4.6 mph - N/A   Overcast
8:15 AM 38.8 °F 35.4 °F 38.5 °F 99% 30.07 in 5.0 mi NE 4.6 mph - N/A   Overcast
8:35 AM 39.2 °F 37.0 °F 38.7 °F 98% 30.07 in 5.0 mi NNE 3.5 mph - N/A   Overcast
8:55 AM 39.2 °F 35.9 °F 38.7 °F 98% 30.07 in 7.0 mi NNE 4.6 mph - N/A   Overcast
9:15 AM 39.2 °F 37.0 °F 38.7 °F 98% 30.07 in 7.0 mi NE 3.5 mph - N/A   Overcast
9:35 AM 39.2 °F 35.9 °F 38.7 °F 98% 30.08 in 7.0 mi NNE 4.6 mph - N/A   Overcast
9:55 AM 39.2 °F 35.0 °F 38.5 °F 97% 30.08 in 10.0 mi NE 5.8 mph - N/A   Overcast
10:15 AM 39.6 °F 36.3 °F 38.7 °F 97% 30.08 in 10.0 mi NE 4.6 mph - N/A   Overcast
10:35 AM 39.9 °F 36.7 °F 38.8 °F 96% 30.08 in 10.0 mi NNE 4.6 mph - N/A   Overcast
10:55 AM 39.9 °F 36.7 °F 38.7 °F 95% 30.10 in 10.0 mi ENE 4.6 mph - N/A   Overcast
11:15 AM 40.1 °F 36.1 °F 38.7 °F 95% 30.11 in 10.0 mi North 5.8 mph - N/A   Overcast
11:35 AM 40.1 °F 36.1 °F 39.0 °F 96% 30.12 in 10.0 mi NNE 5.8 mph - N/A   Overcast
11:55 AM 39.9 °F 35.8 °F 38.7 °F 95% 30.11 in 5.0 mi NE 5.8 mph - N/A   Overcast
12:15 PM 39.6 °F 35.4 °F 38.5 °F 96% 30.11 in 5.0 mi NNE 5.8 mph - N/A   Overcast
12:35 PM 39.7 °F 36.5 °F 38.3 °F 95% 30.10 in 7.0 mi NE 4.6 mph - N/A   Drizzle
12:55 PM 40.3 °F 38.2 °F 38.8 °F 95% 30.10 in 10.0 mi NNE 3.5 mph - N/A   Light Drizzle
1:15 PM 40.3 °F 36.3 °F 38.7 °F 94% 30.11 in 10.0 mi NNE 5.8 mph - N/A   Overcast
1:35 PM 40.3 °F 36.3 °F 38.3 °F 93% 30.11 in 10.0 mi NNE 5.8 mph - N/A   Overcast
1:55 PM 40.5 °F 38.4 °F 38.3 °F 92% 30.11 in 10.0 mi NNE 3.5 mph - N/A   Overcast
2:15 PM 40.8 °F 38.8 °F 38.5 °F 91% 30.11 in 10.0 mi NE 3.5 mph - N/A   Overcast
2:35 PM 41.0 °F 37.1 °F 38.3 °F 90% 30.11 in 10.0 mi NNE 5.8 mph - N/A   Overcast
2:55 PM 41.0 °F 37.1 °F 38.3 °F 90% 30.11 in 10.0 mi NE 5.8 mph - N/A   Overcast
3:15 PM 41.0 °F 36.4 °F 38.1 °F 89% 30.12 in 10.0 mi ENE 6.9 mph - N/A   Overcast
3:35 PM 41.2 °F 38.2 °F 37.9 °F 88% 30.13 in 10.0 mi NE 4.6 mph - N/A   Overcast
3:55 PM 41.2 °F 36.6 °F 38.1 °F 89% 30.13 in 10.0 mi NE 6.9 mph - N/A   Overcast
4:15 PM 41.0 °F 38.0 °F 37.9 °F 89% 30.13 in 10.0 mi NE 4.6 mph - N/A   Overcast
4:35 PM 41.0 °F 36.4 °F 37.8 °F 88% 30.14 in 10.0 mi NNE 6.9 mph - N/A   Overcast
4:55 PM 40.6 °F 38.6 °F 37.4 °F 88% 30.14 in 10.0 mi NE 3.5 mph - N/A   Overcast
5:15 PM 40.5 °F 37.3 °F 37.4 °F 89% 30.16 in 10.0 mi NE 4.6 mph - N/A   Overcast
5:35 PM 40.5 °F 36.5 °F 37.4 °F 89% 30.17 in 10.0 mi NE 5.8 mph - N/A   Overcast
5:55 PM 40.5 °F 37.3 °F 37.4 °F 89% 30.18 in 10.0 mi ENE 4.6 mph - N/A   Overcast
6:15 PM 40.3 °F 36.3 °F 37.2 °F 89% 30.19 in 10.0 mi NE 5.8 mph - N/A   Overcast
6:35 PM 40.3 °F - 36.9 °F 88% 30.20 in 10.0 mi Calm Calm - N/A   Overcast
6:55 PM 40.1 °F 36.9 °F 36.7 °F 88% 30.19 in 10.0 mi NE 4.6 mph - N/A   Overcast
7:15 PM 40.1 °F 36.9 °F 36.5 °F 87% 30.21 in 10.0 mi NE 4.6 mph - N/A   Overcast
7:35 PM 39.7 °F 37.6 °F 36.5 °F 88% 30.22 in 10.0 mi NE 3.5 mph - N/A   Overcast
7:55 PM 39.4 °F 37.2 °F 36.5 °F 89% 30.22 in 10.0 mi NE 3.5 mph - N/A   Overcast
8:15 PM 39.2 °F - 36.5 °F 90% 30.24 in 10.0 mi Calm Calm - N/A   Mostly Cloudy
8:35 PM 37.9 °F - 35.6 °F 91% 30.24 in 10.0 mi Calm Calm - N/A   Clear
8:55 PM 35.2 °F - 33.4 °F 93% 30.24 in 4.0 mi Calm Calm - N/A   Clear
9:15 PM 34.0 °F - 33.1 °F 96% 30.24 in 3.0 mi Calm Calm - N/A   Clear
9:35 PM 34.3 °F - 33.4 °F 97% 30.24 in 5.0 mi Calm Calm - N/A   Mostly Cloudy
9:55 PM 33.6 °F - 33.1 °F 98% 30.25 in 3.0 mi Calm Calm - N/A   Overcast
10:15 PM 34.2 °F - 33.8 °F 99% 30.24 in 5.0 mi Calm Calm - N/A   Overcast
10:35 PM 34.3 °F - 34.0 °F 99% 30.25 in 3.0 mi Calm Calm - N/A   Overcast
10:55 PM 34.7 °F - 34.3 °F 99% 30.25 in 7.0 mi Calm Calm - N/A   Overcast
11:15 PM 34.9 °F - 34.5 °F 99% 30.25 in 4.0 mi Calm Calm - N/A   Overcast
11:35 PM 35.1 °F - 34.9 °F 99% 30.25 in 5.0 mi Calm Calm - N/A   Overcast
11:55 PM 36.0 °F - 35.6 °F 99% 30.26 in 7.0 mi Calm Calm - N/A   Overcast